RH
41 42 41 49 60 60 60 50 44 39 35 34 30 30 33 36 38 41 36 38 41 37 32 27 24 19 12 8 7 9 9 10 10 10 10 10 10 11 11 12 12 12 13 13 13 10 7 7 7
39 38 44 53 58 55 49 45 41 36 32 29 27 26 26 31 32 32 32 37 39 37 29 26 21 13 10 7 9 10 10 11 11 11 11 11 11 12 12 12 12 12 13 13 12 11 8 7 7
36 39 46 54 57 55 52 51 46 36 27 26 26 26 26 28 27 28 32 37 39 33 27 24 15 11 9 9 10 11 12 12 12 12 12 12 13 15 13 12 13 13 14 17 16 16 13 10 9
38 43 52 54 54 54 55 56 47 39 32 27 26 26 26 27 28 27 33 38 38 30 26 20 13 11 10 11 12 13 14 14 14 14 14 16 18 17 21 17 19 22 21 23 23 22 20 18 18
39 45 51 55 54 50 56 58 50 44 36 31 25 28 28 28 29 28 31 36 35 27 24 16 12 10 11 12 14 16 16 17 18 18 17 17 18 17 21 20 24 25 26 26 25 24 23 22 17
38 44 50 49 49 51 53 54 55 47 38 34 29 26 28 29 28 30 33 35 31 24 22 15 11 12 14 16 17 18 21 20 21 21 20 18 16 15 17 20 26 26 27 27 26 24 22 20 16
34 38 46 41 46 55 59 61 56 49 39 35 29 28 27 28 29 31 33 31 26 24 21 15 10 13 16 19 20 22 24 24 23 23 22 20 17 16 16 20 27 27 28 27 24 23 21 19 15
34 35 40 40 56 58 56 60 54 45 37 31 26 26 26 25 27 30 33 27 22 23 21 15 11 14 18 21 25 26 27 27 26 25 24 22 19 17 17 21 26 28 25 27 25 24 18 15 12
32 36 38 39 50 49 51 52 48 39 33 26 24 22 20 22 26 28 29 23 22 23 21 14 13 16 21 24 27 27 28 29 29 27 26 24 21 19 19 22 23 23 23 23 23 21 14 12 12
33 33 33 35 42 40 40 41 36 33 28 25 24 22 22 22 24 27 24 22 24 23 20 16 16 19 23 26 28 29 30 31 31 30 29 27 22 19 21 22 23 23 22 20 21 20 14 12 13
33 30 33 36 33 35 36 34 30 28 25 22 22 23 23 23 25 26 23 23 24 23 20 16 18 21 24 28 29 31 33 34 35 33 33 29 22 21 22 24 26 24 21 21 19 15 14 14 14
31 33 36 35 33 34 32 29 25 24 20 20 21 22 23 24 25 23 23 23 23 23 21 19 21 24 27 30 32 34 36 37 37 37 35 30 23 22 25 28 28 22 22 19 17 17 14 13 11
31 34 36 35 34 32 29 24 24 24 21 21 24 25 26 25 24 24 24 24 25 25 24 22 24 26 30 33 36 38 39 40 40 39 36 30 25 25 29 29 27 26 22 19 19 15 13 11 10
36 34 35 36 33 31 26 27 25 29 28 23 25 26 27 24 25 25 25 25 27 27 27 26 28 30 34 37 40 42 42 43 43 42 37 31 28 28 30 31 30 26 23 21 17 15 13 11 9
34 34 34 33 31 27 30 30 30 30 30 28 27 26 26 27 28 29 28 27 29 31 31 32 32 34 37 40 42 45 46 47 47 42 36 33 31 32 35 33 29 26 22 19 17 14 13 11 11
32 30 31 28 29 32 32 31 31 32 32 32 30 26 26 30 30 30 29 29 31 33 35 36 37 38 40 43 46 47 48 48 46 41 37 35 36 38 36 32 27 23 21 19 17 14 13 11 12
28 28 27 28 31 33 33 30 31 34 33 32 31 28 29 30 31 32 32 31 33 36 38 40 41 41 43 45 47 49 50 49 45 42 40 39 43 41 35 30 26 23 20 18 16 15 14 12 13
27 26 26 30 30 32 32 31 33 34 34 31 31 31 30 30 33 36 35 33 35 39 43 45 45 43 44 47 50 51 50 49 46 43 43 47 45 39 33 29 27 22 19 17 14 15 17 17 16
24 26 27 27 29 31 32 32 34 36 34 32 30 30 30 33 38 40 41 38 39 42 45 49 49 47 47 49 51 52 53 51 48 46 50 48 41 37 33 29 26 22 21 18 16 17 19 18 17
27 27 25 25 30 31 32 32 34 32 29 26 26 30 35 40 41 42 44 43 41 43 47 53 53 51 49 51 53 54 54 53 50 52 50 42 39 38 34 29 26 23 18 18 17 19 22 21 22
27 28 27 27 28 29 31 32 30 30 29 30 29 34 38 41 42 44 50 46 44 46 51 56 58 53 51 53 55 55 55 54 53 51 43 39 38 35 30 27 25 22 19 18 19 23 23 23 26
25 27 25 26 30 34 31 34 25 25 27 29 31 36 37 43 43 48 51 47 47 50 54 59 59 55 54 57 57 57 56 55 55 45 40 38 34 29 26 24 22 21 17 18 21 23 25 27 33
21 23 25 26 28 28 27 33 22 22 24 30 30 34 36 44 47 52 49 50 51 54 59 62 61 57 57 59 60 59 57 57 48 40 36 33 28 24 21 19 19 15 16 19 20 22 28 36 47
22 23 25 27 28 28 22 24 25 25 26 27 30 34 40 47 51 51 50 52 55 59 63 63 61 58 60 63 64 62 61 52 42 36 32 26 22 19 17 17 15 16 17 19 22 29 41 51 55
25 27 30 27 27 27 23 27 27 27 28 28 33 37 44 49 50 49 54 58 60 61 62 64 62 60 63 67 67 65 56 46 37 34 28 22 17 16 16 16 15 15 18 23 30 42 50 55 59
31 31 40 38 38 30 27 28 27 29 31 33 36 42 46 50 53 56 60 58 60 61 63 65 64 63 67 68 70 65 49 38 35 30 24 18 15 16 17 16 16 18 24 34 40 50 55 60 64
30 34 32 34 33 34 31 30 28 29 33 37 41 45 48 52 55 58 57 59 59 62 66 67 68 68 72 75 72 53 42 37 35 26 20 16 15 17 17 16 18 25 34 39 48 56 60 65 70
30 30 33 34 34 35 32 30 32 34 38 40 43 46 49 52 54 57 57 58 60 66 68 71 71 75 80 76 58 47 42 39 28 21 17 15 16 17 16 17 22 32 38 46 56 61 66 69 75
32 32 31 31 36 37 37 36 34 34 39 45 47 48 49 53 55 56 57 60 66 69 73 77 79 82 77 63 52 47 42 32 23 18 16 15 17 17 16 19 29 37 43 54 63 67 69 72 76
30 32 32 39 37 41 45 40 38 36 40 42 45 51 53 55 55 58 64 70 71 72 80 83 85 78 68 55 49 43 36 27 19 16 16 16 17 18 18 25 33 40 50 61 68 69 72 75 86